Tracking 34717 objects as of 15-Jul-2026
HD Live streaming from Space Station
objects crossing your sky now

STARLINK-37673

Track STARLINK-37673 now!
10-day predictions
STARLINK-37673 is classified as:


NORAD ID: 69370
Int'l Code: 2026-123T
Perigee: 350.2 km
Apogee: 351.8 km
Inclination: 53.2 °
Period: 91.4 minutes
Semi major axis: 6721 km
RCS: Unknown
Launch date: June 4, 2026
Source: United States (US)
Launch site: AIR FORCE EASTERN TEST RANGE (AFETR)
Your satellite tracking list
Your tracking list is empty




NASA's NSSDC Master Catalog

Two Line Element Set (TLE):
1 69370U 26123T   26195.90502852  .00129781  00000-0  83672-3 0  9990
2 69370  53.1595 103.3920 0001143 129.4591 230.6531 15.75270201  6414
Source of the keplerian elements: AFSPC